Notices

What's New in latest Release from April 7th, 2021:

- Updated Glossary, including Speed of Maximum Gust, and Total Hourly Precipitation

- Updated national and regional climate services offices contacts and prices information

- Addition of station inventory lists for 1981-2010, 1971-2000, and 1961-1990 Normals.

If you haven't already, please take our survey and provide feedback about our website: https://eccc.sondage-survey.ca/f/LanguageSelection.aspx?s=442ca660-fcf1-47c0-95a9-59707d6fd709

Hourly Data Report for February 23, 2017

TORONTO INTL A
ONTARIO

43°40'36.000" N
79°37'50.000" W
173.40 m
6158731
71624
YYZ

Download Data

Hourly Data (February 2017)
Hourly Data Report for February 23, 2017
TIME
LST
Temp Definition
°C
Dew Point Definition
°C
Rel Hum Definition
%
Precip. Amount Definition
mm

Wind Dir Definition
10's deg

Wind Spd Definition
km/h
Visibility Definition
km
Stn Press Definition
kPa
Hmdx Definition


Wind Chill Definition


Weather Definition


00:00 5.5 5.1 97   14 8 8.1 98.52     Fog
01:00 6.5 6.2 98   15 8 8.1 98.48     Fog
02:00 7.2 6.9 98   9 7 9.7 98.46     Fog
03:00 8.2 7.8 97   14 11 9.7 98.41     Fog
04:00 8.4 8.0 97   14 11 9.7 98.34     Fog
05:00 8.9 8.5 97   15 14 16.1 98.29     LegendNANA
06:00 10.0 9.4 96   17 11 16.1 98.26     LegendNANA
07:00 10.2 9.4 95   17 5 12.9 98.25     Cloudy
08:00 13.0 11.6 91   22 23 11.3 98.25     LegendNANA
09:00 13.6 11.7 88   22 21 14.5 98.21     LegendNANA
10:00 14.4 11.6 83   23 26 14.5 98.23     Cloudy
11:00 15.1 11.3 78   24 32 19.3 98.25     LegendNANA
12:00 16.5 11.1 70   24 29 24.1 98.29     LegendNANA
13:00 17.4 9.4 59   28 37 24.1 98.25     Mainly Clear
14:00 16.8 6.7 51   28 38 24.1 98.34     LegendNANA
15:00 14.7 6.8 59   30 39 24.1 98.50     LegendNANA
16:00 11.8 5.3 64   30 35 24.1 98.67     Clear
17:00 10.6 3.9 63   30 31 24.1 98.79     LegendNANA
18:00 8.0 3.1 71   32 29 24.1 98.92     LegendNANA
19:00 6.8 2.9 76   33 26 24.1 99.00     Mainly Clear
20:00 5.8 2.6 80   32 18 24.1 99.02     LegendNANA
21:00 5.2 2.2 81   32 15 24.1 99.09     LegendNANA
22:00 5.0 2.4 83   36 12 24.1 99.09     Mostly Cloudy
23:00 4.9 3.1 88   3 15 24.1 99.12     LegendNANA

Notes on Data Quality.

Legend

  • E = Estimated
  • M = Missing
  • NA = Not Available*
  • [empty] = Indicates an unobserved value
Date modified: